DW8024 Weather Reports


Display with metric or nautical units.
time (UTC)temp
F
wind
direction
speed
MPH
gust
MPH
rain 1hr
in
rain 24hr
in
rain mn
in
humidity
%
barometer
mb
20260505225505 46 47 6.0 11.0 0.00 0.00 0.00 78 1015.0
20260505225005 46 44 6.0 11.0 0.00 0.00 0.00 78 1015.0
20260505224007 46 56 4.0 11.0 0.00 0.00 0.00 78 1015.0
20260505223506 46 55 5.0 11.0 0.00 0.00 0.00 78 1015.1
20260505223009 47 48 5.0 11.0 0.00 0.00 0.00 77 1015.0
20260505222505 47 49 5.0 10.0 0.00 0.00 0.00 78 1015.0
20260505222005 47 54 5.0 9.0 0.00 0.00 0.00 78 1015.0
20260505221508 47 54 4.0 10.0 0.00 0.00 0.00 79 1015.1
20260505221006 47 61 2.0 10.0 0.00 0.00 0.00 78 1015.0
20260505220505 47 63 3.0 8.0 0.00 0.00 0.00 78 1015.0
20260505215005 47 58 6.0 13.0 0.00 0.00 0.00 78 1014.9
20260505214509 47 48 5.0 13.0 0.00 0.00 0.00 78 1014.8
20260505214006 47 47 5.0 11.0 0.00 0.00 0.00 78 1014.8
20260505213505 47 53 6.0 9.0 0.00 0.00 0.00 78 1014.8
20260505213009 47 56 6.0 11.0 0.00 0.00 0.00 77 1014.7
20260505212005 47 53 7.0 12.0 0.00 0.00 0.00 77 1014.8
20260505211509 47 50 7.0 12.0 0.00 0.00 0.00 77 1014.9
20260505211005 47 46 7.0 17.0 0.00 0.00 0.00 77 1014.9
20260505210506 47 47 8.0 17.0 0.00 0.00 0.00 77 1014.8
20260505210008 48 49 5.0 11.0 0.00 0.00 0.00 77 1014.9
20260505205506 48 50 6.0 13.0 0.00 0.00 0.00 78 1014.8
20260505205006 48 44 7.0 13.0 0.00 0.00 0.00 78 1014.8
20260505204508 48 38 7.0 13.0 0.00 0.00 0.00 78 1014.7
20260505204005 48 39 6.0 10.0 0.00 0.00 0.00 78 1014.6
20260505203505 48 36 6.0 11.0 0.00 0.00 0.00 78 1014.6
20260505203009 48 42 6.0 11.0 0.00 0.00 0.00 78 1014.6
20260505202506 48 45 8.0 15.0 0.00 0.00 0.00 78 1014.5
20260505202005 48 39 9.0 15.0 0.00 0.00 0.00 78 1014.5
20260505200506 49 46 3.0 9.0 0.00 0.00 0.00 78 1014.5
20260505200008 49 38 4.0 9.0 0.00 0.00 0.00 78 1014.5
20260505195005 49 45 5.0 12.0 0.00 0.00 0.00 77 1014.3
20260505194507 49 49 7.0 13.0 0.00 0.00 0.00 76 1014.3
20260505194005 49 48 7.0 13.0 0.00 0.00 0.00 76 1014.2
20260505193506 49 47 6.0 14.0 0.00 0.00 0.00 75 1014.2
20260505192505 50 50 6.0 12.0 0.00 0.00 0.00 75 1014.1
20260505192005 50 60 5.0 13.0 0.00 0.00 0.00 74 1014.1
20260505191509 50 59 4.0 13.0 0.00 0.00 0.00 74 1014.0
20260505190506 50 42 5.0 10.0 0.00 0.00 0.00 75 1014.0
20260505190007 50 41 6.0 10.0 0.00 0.00 0.00 75 1014.0
20260505184509 51 38 8.0 13.0 0.00 0.00 0.00 75 1013.9
20260505184005 51 31 7.0 13.0 0.00 0.00 0.00 76 1013.8
20260505182005 51 53 7.0 12.0 0.00 0.00 0.00 75 1013.7
20260505181507 52 50 6.0 11.0 0.00 0.00 0.00 75 1013.6
20260505181006 52 44 5.0 10.0 0.00 0.00 0.00 75 1013.6
20260505180505 52 44 4.0 10.0 0.00 0.00 0.00 75 1013.6
20260505180009 52 53 3.0 8.0 0.00 0.00 0.00 76 1013.6
20260505175506 52 57 4.0 9.0 0.00 0.00 0.00 75 1013.6
20260505175005 52 62 4.0 10.0 0.00 0.00 0.00 75 1013.6
20260505174508 52 64 4.0 10.0 0.00 0.00 0.00 74 1013.6
20260505174005 52 45 6.0 12.0 0.00 0.00 0.00 74 1013.6
20260505173505 52 35 6.0 12.0 0.00 0.00 0.00 74 1013.6
20260505173007 52 44 5.0 10.0 0.00 0.00 0.00 74 1013.6
20260505172505 53 52 4.0 9.0 0.00 0.00 0.00 73 1013.6
20260505172006 53 55 5.0 10.0 0.00 0.00 0.00 73 1013.6
20260505171507 53 56 6.0 10.0 0.00 0.00 0.00 72 1013.6
20260505171005 53 53 4.0 9.0 0.00 0.00 0.00 71 1013.6
20260505170505 53 353 2.0 8.0 0.00 0.00 0.00 70 1013.7
20260505170008 54 298 2.0 5.0 0.00 0.00 0.00 68 1013.6
20260505165506 54 292 2.0 5.0 0.00 0.00 0.00 67 1013.6
20260505165006 54 282 2.0 5.0 0.00 0.00 0.00 67 1013.5
20260505164507 54 291 3.0 7.0 0.00 0.00 0.00 66 1013.4
20260505164005 54 300 3.0 7.0 0.00 0.00 0.00 67 1013.6
20260505163504 54 301 2.0 7.0 0.00 0.00 0.00 67 1013.6
20260505163009 54 285 2.0 5.0 0.00 0.00 0.00 66 1013.6
20260505162506 54 275 3.0 5.0 0.00 0.00 0.00 66 1013.6
20260505162005 54 288 3.0 5.0 0.00 0.00 0.00 65 1013.6
20260505161508 54 298 2.0 4.0 0.00 0.00 0.00 67 1013.5
20260505161006 54 305 2.0 6.0 0.00 0.00 0.00 65 1013.5
20260505160506 54 298 2.0 6.0 0.00 0.00 0.00 66 1013.5
20260505153008 55 293 2.0 5.0 0.00 0.00 0.00 66 1013.6
20260505152505 55 279 2.0 5.0 0.00 0.00 0.00 69 1013.6
20260505152005 55 254 2.0 5.0 0.00 0.00 0.00 69 1013.6
20260505151508 55 253 3.0 5.0 0.00 0.00 0.00 67 1013.6
20260505151005 55 249 3.0 7.0 0.00 0.00 0.00 69 1013.6
20260505140505 53 305 2.0 5.0 0.00 0.00 0.00 72 1013.8
20260505125004 54 316 3.0 9.0 0.00 0.00 0.00 68 1013.8
20260505123504 53 326 3.0 7.0 0.00 0.00 0.00 69 1013.8
20260505123008 53 321 3.0 8.0 0.00 0.00 0.00 71 1013.8
20260505122505 53 305 3.0 8.0 0.00 0.00 0.00 72 1013.8
20260505122004 53 307 3.0 8.0 0.00 0.00 0.00 73 1013.9
20260505121006 53 314 6.0 11.0 0.00 0.00 0.00 73 1013.8
20260505120506 53 311 5.0 11.0 0.00 0.00 0.00 73 1013.9
20260505120008 52 307 5.0 11.0 0.00 0.00 0.00 73 1013.9
20260505115505 52 312 6.0 11.0 0.00 0.00 0.00 72 1013.9
20260505115004 53 317 6.0 10.0 0.00 0.00 0.00 73 1013.9
20260505114508 52 312 4.0 10.0 0.00 0.00 0.00 71 1013.9
20260505114005 52 306 4.0 9.0 0.00 0.00 0.00 72 1013.9
20260505113008 52 302 4.0 9.0 0.00 0.00 0.00 70 1014.0
20260505112505 52 311 5.0 9.0 0.00 0.00 0.00 70 1014.0
20260505112004 53 310 4.0 9.0 0.00 0.00 0.00 70 1014.0
20260505111005 54 304 4.0 9.0 0.00 0.00 0.00 67 1014.0
20260505110506 54 318 3.0 8.0 0.00 0.00 0.00 66 1013.9
20260505102004 52 283 5.0 8.0 0.00 0.00 0.00 70 1014.2
20260505101508 52 284 5.0 9.0 0.00 0.00 0.00 70 1014.2
20260505101004 52 287 5.0 9.0 0.00 0.00 0.00 71 1014.1
20260505100506 52 291 4.0 8.0 0.00 0.00 0.00 72 1014.2
20260505100008 52 286 4.0 8.0 0.00 0.00 0.00 73 1014.1
20260505094507 52 296 5.0 8.0 0.00 0.00 0.00 71 1014.2
20260505093504 52 298 4.0 10.0 0.00 0.00 0.00 68 1014.2
20260505093007 53 300 4.0 10.0 0.00 0.00 0.00 67 1014.2
20260505092005 53 315 4.0 12.0 0.00 0.00 0.00 66 1014.2
20260505091508 53 326 4.0 11.0 0.00 0.00 0.00 66 1014.2
20260505090505 53 355 5.0 12.0 0.00 0.00 0.00 65 1014.2
20260505090008 53 348 4.0 10.0 0.00 0.00 0.00 66 1014.2
20260505085505 53 335 4.0 10.0 0.00 0.00 0.00 67 1014.2
20260505085004 53 346 6.0 16.0 0.00 0.00 0.00 66 1014.2
20260505084507 53 344 6.0 16.0 0.00 0.00 0.00 68 1014.2
20260505083504 52 319 7.0 13.0 0.00 0.00 0.00 67 1014.3
20260505083007 52 317 6.0 13.0 0.00 0.00 0.00 68 1014.2
20260505082505 52 308 7.0 13.0 0.00 0.00 0.00 72 1014.3
20260505082004 52 316 6.0 13.0 0.00 0.00 0.00 73 1014.3
20260505081507 52 349 4.0 11.0 0.00 0.00 0.00 76 1014.3
20260505081005 51 346 4.0 10.0 0.00 0.00 0.00 79 1014.3
20260505080505 50 340 4.0 9.0 0.00 0.00 0.00 81 1014.3
20260505080007 49 344 4.0 10.0 0.00 0.00 0.00 83 1014.5
20260505075506 49 358 3.0 10.0 0.00 0.00 0.00 84 1014.4
20260505075004 48 25 2.0 4.0 0.00 0.00 0.00 86 1014.3
20260505074507 48 3 2.0 5.0 0.00 0.00 0.00 87 1014.4
20260505074005 47 327 2.0 5.0 0.00 0.00 0.00 88 1014.4
20260505073008 47 19 1.0 4.0 0.00 0.00 0.00 89 1014.4
20260505072505 46 13 1.0 4.0 0.00 0.00 0.00 90 1014.5
20260505072004 46 323 1.0 4.0 0.00 0.00 0.00 90 1014.4
20260505071004 45 352 1.0 4.0 0.00 0.00 0.00 90 1014.6
20260505070505 45 326 2.0 5.0 0.00 0.00 0.00 90 1014.6
20260505070007 45 314 1.0 5.0 0.00 0.00 0.00 90 1014.6
20260505065505 44 344 1.0 3.0 0.00 0.00 0.00 90 1014.7
20260505065005 44 332 2.0 4.0 0.00 0.00 0.00 90 1014.7
20260505064507 44 326 2.0 4.0 0.00 0.00 0.00 90 1014.7
20260505064007 44 327 2.0 3.0 0.00 0.00 0.00 90 1014.7
20260505063504 43 338 2.0 3.0 0.00 0.00 0.00 90 1014.6
20260505063008 43 351 1.0 3.0 0.00 0.00 0.00 90 1014.8
20260505062505 43 0 0.0 2.0 0.00 0.00 0.00 90 1014.8
20260505062004 42 0 0.0 1.0 0.00 0.00 0.00 90 1014.7
20260505061508 42 0 0.0 0.0 0.00 0.00 0.00 90 1014.7
20260505061004 42 0 0.0 0.0 0.00 0.00 0.00 90 1014.7
20260505060007 41 0 0.0 2.0 0.00 0.00 0.00 90 1014.6
20260505055005 40 0 0.0 2.0 0.00 0.00 0.00 90 1014.6
20260505054507 40 160 1.0 2.0 0.00 0.00 0.00 90 1014.6
20260505054004 40 160 1.0 2.0 0.00 0.00 0.00 90 1014.6
20260505053504 39 0 0.0 2.0 0.00 0.00 0.00 90 1014.6
20260505053007 39 0 0.0 2.0 0.00 0.00 0.00 90 1014.6
20260505052504 39 0 0.0 2.0 0.00 0.00 0.00 90 1014.6
20260505051508 39 0 0.0 2.0 0.00 0.00 0.00 90 1014.5
20260505051004 39 0 0.0 2.0 0.00 0.00 0.00 90 1014.5
20260505050505 38 0 0.0 2.0 0.00 0.00 0.00 90 1014.5
20260505041508 38 0 0.0 2.0 0.00 0.00 0.00 90 1014.2
20260505041006 38 0 0.0 2.0 0.00 0.00 0.00 90 1014.2
20260505040504 39 0 0.0 1.0 0.00 0.00 0.00 90 1014.2
20260505040007 39 0 0.0 2.0 0.00 0.00 0.00 90 1014.1
20260505035004 39 0 0.0 0.0 0.00 0.00 0.00 90 1014.2
20260505034508 39 169 1.0 2.0 0.00 0.00 0.00 90 1014.2
20260505034005 39 169 1.0 2.0 0.00 0.00 0.00 90 1014.2
20260505033504 39 0 0.0 2.0 0.00 0.00 0.00 90 1014.2
20260505033008 40 0 0.0 2.0 0.00 0.00 0.00 90 1014.2
20260505032505 40 0 0.0 2.0 0.00 0.00 0.00 90 1014.2
20260505032004 40 0 0.0 0.0 0.00 0.00 0.00 90 1014.1
20260505031508 40 0 0.0 2.0 0.00 0.00 0.00 90 1014.1
20260505031005 40 158 1.0 3.0 0.00 0.00 0.00 90 1014.2
20260505030505 40 158 1.0 3.0 0.00 0.00 0.00 90 1014.3
20260505025504 40 0 0.0 3.0 0.00 0.00 0.00 90 1014.4
20260505025005 40 0 0.0 2.0 0.00 0.00 0.00 90 1014.4
20260505024506 40 0 0.0 2.0 0.00 0.00 0.00 90 1014.4
20260505024004 41 159 1.0 2.0 0.00 0.00 0.00 90 1014.4
20260505023008 41 158 1.0 3.0 0.00 0.00 0.00 90 1014.5
20260505022006 41 0 0.0 0.0 0.00 0.00 0.00 90 1014.5
20260505021507 41 0 0.0 0.0 0.00 0.00 0.00 90 1014.5
20260505021005 41 0 0.0 2.0 0.00 0.00 0.00 90 1014.5
20260505020505 41 158 1.0 3.0 0.00 0.00 0.00 90 1014.5
20260505020008 41 174 2.0 3.0 0.00 0.00 0.00 90 1014.5
20260505015504 41 188 1.0 3.0 0.00 0.00 0.00 90 1014.5
20260505015004 41 0 0.0 0.0 0.00 0.00 0.00 90 1014.5
20260505014507 42 0 0.0 0.0 0.00 0.00 0.00 90 1014.5
20260505014005 42 0 0.0 0.0 0.00 0.00 0.00 90 1014.6
20260505013504 42 0 0.0 2.0 0.00 0.00 0.00 90 1014.6
20260505013006 42 0 0.0 2.0 0.00 0.00 0.00 90 1014.7
20260505012504 42 0 0.0 1.0 0.00 0.00 0.00 90 1014.8
20260505011507 42 0 0.0 0.0 0.00 0.00 0.00 90 1014.8
20260505011005 42 0 0.0 0.0 0.00 0.00 0.00 90 1014.8
20260505010504 42 0 0.0 0.0 0.00 0.00 0.00 90 1014.8
20260505010007 42 0 0.0 0.0 0.00 0.00 0.00 90 1014.9
20260505005504 42 0 0.0 0.0 0.00 0.00 0.00 90 1014.9
20260505005005 42 0 0.0 0.0 0.00 0.00 0.00 90 1014.9
20260505004507 42 0 0.0 0.0 0.00 0.00 0.00 90 1014.9
20260505004005 42 0 0.0 0.0 0.00 0.00 0.00 90 1015.0
20260505003505 43 0 0.0 0.0 0.00 0.00 0.00 90 1014.9
20260505003007 43 0 0.0 0.0 0.00 0.00 0.00 90 1015.0
20260505002504 43 0 0.0 0.0 0.00 0.00 0.00 90 1015.0
20260505002003 43 0 0.0 0.0 0.00 0.00 0.00 90 1015.1
20260505001507 43 0 0.0 0.0 0.00 0.00 0.00 90 1015.1
20260505001004 43 0 0.0 0.0 0.00 0.00 0.00 89 1015.2
20260505000505 44 0 0.0 0.0 0.00 0.00 0.00 89 1015.1
20260505000007 44 0 0.0 0.0 0.00 0.00 0.00 89 1015.2
20260504235505 44 0 0.0 1.0 0.00 0.00 0.00 89 1015.2
20260504235004 44 0 0.0 1.0 0.00 0.00 0.00 88 1015.3
20260504234506 44 0 0.0 0.0 0.00 0.00 0.00 88 1015.3
20260504234004 45 0 0.0 0.0 0.00 0.00 0.00 88 1015.3
20260504233503 45 0 0.0 0.0 0.00 0.00 0.00 87 1015.2
20260504232504 45 0 0.0 3.0 0.00 0.00 0.00 87 1015.2
20260504231506 46 0 0.0 4.0 0.00 0.00 0.00 86 1015.2
20260504230011 47 0 0.0 2.0 0.00 0.00 0.00 84 1015.2